[[{"header":{"parameterUnit":"m.s-1","parameterCategory":1,"la1":30.2992,"la2":30.254,"lo1":-89.0895,"lo2":-89.0443,"dy":0.0025,"dx":0.0025,"nx":19,"ny":19,"refTime":"2026-04-26T03:00:00:Z","depth":0,"parameterNumber":2,"parameterNumberName":"U-component_of_WINDS"},"data":[0,0,0,2.5444,2.5434,2.4873,2.487,2.4286,2.4283,0,0,0,0,0,0,0,0,0,0,0,2.5699,2.5698,2.5445,2.5433,2.4874,2.487,2.4287,2.4283,0,0,0,0,0,0,0,0,0,0,0,2.5699,2.5698,2.5697,2.5432,2.4874,2.487,2.4288,2.4662,0,0,0,0,0,0,0,0,0,0,2.5182,2.5507,2.5699,2.5697,2.5429,2.4875,2.487,2.4677,2.4639,2.46,0,2.4597,0,2.4432,2.4253,2.4251,0,0,0,2.5365,2.5541,2.5309,2.5697,2.5425,2.4876,2.5107,2.4654,2.461,2.455,2.4587,2.4561,2.4422,2.425,2.4248,2.4269,2.4273,0,0,2.5396,2.5645,2.5341,2.5286,2.5389,2.5125,2.5091,2.4625,2.468,2.4584,2.4545,2.4413,2.4247,2.4244,2.4266,2.427,0,0,0,2.5531,2.567,2.5446,2.5314,2.5203,2.5111,2.507,2.47,2.4607,2.4538,2.4406,2.4244,2.4239,2.4262,2.4268,2.4677,0,0,0,2.5546,2.5747,2.5463,2.561,2.5215,2.4947,2.516,2.464,2.4579,2.4409,2.4244,2.4235,2.4258,2.4265,2.4657,2.483,0,0,0,2.5705,2.5764,2.5715,2.5625,2.5393,2.4948,2.4826,2.4621,2.4502,2.4251,2.4233,2.4255,2.4264,2.464,2.48,2.4909,0,0,0,2.5944,2.6085,2.5726,2.5829,2.54,2.5208,2.4826,2.4668,2.4502,2.4242,2.4259,2.4267,2.4634,2.4782,2.4893,2.505,2.5138,0,0,2.626,2.6132,2.6172,2.5834,2.5772,2.5273,2.5263,2.4872,2.4616,2.4397,2.4394,2.4664,2.4798,2.4906,2.554,2.5613,0,0,0,2.6356,2.6389,2.6317,2.6174,2.5882,2.5642,2.5226,2.5079,2.4881,2.4558,2.4722,2.4795,2.4847,2.4911,2.4972,2.5001,2.4306,2.4305,2.4305,2.7162,2.683,2.6874,2.6476,2.634,2.5908,2.5764,2.549,2.5193,2.5238,2.5173,2.5599,2.5683,2.5727,2.5762,2.5225,2.5226,2.5228,2.5229,2.7594,2.7589,2.719,2.7092,2.6738,2.6646,2.6231,2.6023,2.5883,2.5621,2.565,2.5399,2.5817,2.5829,2.5256,2.5251,2.5248,2.5245,2.5243,2.8088,2.8028,2.7849,2.7605,2.7451,2.7035,2.6921,2.6598,2.6293,2.6322,2.6217,2.6209,2.6163,2.6294,2.6296,2.6297,2.6298,2.6299,2.63,2.8673,2.8457,2.8405,2.8105,2.7968,2.7745,2.7308,2.716,2.6914,2.6688,2.6685,2.6385,2.592,2.5813,2.6322,2.6318,2.6315,2.6313,2.6312,2.9241,2.906,2.8981,2.8845,2.8461,2.8329,2.7917,2.7645,2.7474,2.7427,2.7114,2.6824,2.6668,2.6616,2.6525,2.7187,2.7187,2.7187,2.7187,2.9661,2.955,2.9394,2.9197,2.8965,2.8585,2.8495,2.8153,2.7769,2.7642,2.7496,2.7346,2.7308,2.7174,2.711,2.702,2.7793,2.7794,2.7794,2.9991,2.9843,2.9836,2.9466,2.914,2.8866,2.8771,2.8552,2.8077,2.7812,2.7534,2.7509,2.7261,2.7198,2.6937,2.6845,2.6673,0,0]},{"header":{"parameterUnit":"m.s-1","parameterCategory":1,"la1":30.2992,"la2":30.254,"lo1":-89.0895,"lo2":-89.0443,"dy":0.0025,"dx":0.0025,"nx":19,"ny":19,"refTime":"2026-04-26T03:00:00:Z","depth":0,"parameterNumber":3,"parameterNumberName":"V-component_of_WINDS"},"data":[0,0,0,3.6442,3.6437,3.6126,3.6124,3.5819,3.5817,0,0,0,0,0,0,0,0,0,0,0,3.6595,3.6595,3.6443,3.6437,3.6126,3.6124,3.5819,3.5817,0,0,0,0,0,0,0,0,0,0,0,3.6595,3.6595,3.6595,3.6436,3.6127,3.6124,3.582,3.602,0,0,0,0,0,0,0,0,0,0,3.6306,3.6508,3.6595,3.6595,3.6434,3.6127,3.6124,3.6028,3.6008,3.6001,0,3.6015,0,3.5912,3.5803,3.5802,0,0,0,3.639,3.6526,3.6387,3.6595,3.6432,3.6128,3.6253,3.6016,3.5993,3.5974,3.6009,3.5995,3.5907,3.5802,3.5801,3.592,3.5923,0,0,3.6408,3.6571,3.6403,3.6375,3.6434,3.6264,3.6244,3.6,3.6048,3.6008,3.5986,3.5902,3.58,3.5799,3.5917,3.592,0,0,0,3.6488,3.6586,3.645,3.639,3.6328,3.6256,3.6233,3.6059,3.6001,3.5982,3.5898,3.5799,3.5796,3.5914,3.5918,3.6215,0,0,0,3.6496,3.6632,3.646,3.6558,3.6334,3.6191,3.63,3.6018,3.5985,3.59,3.5799,3.5794,3.5911,3.5916,3.62,3.633,0,0,0,3.6594,3.6642,3.6619,3.6567,3.644,3.6191,3.6117,3.6007,3.5937,3.5802,3.5794,3.5908,3.5915,3.6187,3.6308,3.6411,0,0,0,3.6746,3.6887,3.6627,3.6749,3.6444,3.6377,3.6117,3.6058,3.5978,3.5798,3.5911,3.5918,3.6183,3.6294,3.6398,3.6531,3.6601,0,0,3.7016,3.6926,3.6984,3.6742,3.6765,3.6411,3.6473,3.6243,3.6078,3.5981,3.5981,3.6205,3.6306,3.6408,3.6927,3.6985,0,0,0,3.7125,3.7171,3.714,3.7073,3.6901,3.6762,3.6505,3.6417,3.6327,3.6063,3.6262,3.6317,3.637,3.6426,3.6475,3.651,3.595,3.5949,3.5948,3.7747,3.7527,3.7609,3.7353,3.7289,3.7019,3.6946,3.6781,3.6579,3.6629,3.6602,3.6944,3.7016,3.7051,3.709,3.6649,3.665,3.6651,3.6652,3.8124,3.8154,3.7877,3.7859,3.7624,3.7603,3.7344,3.72,3.7145,3.6948,3.6983,3.6793,3.7121,3.7143,3.6672,3.6669,3.6666,3.6664,3.6663,3.8512,3.8488,3.8378,3.8254,3.8181,3.791,3.787,3.7654,3.7451,3.7485,3.7432,3.7427,3.7397,3.7474,3.7475,3.7476,3.7477,3.7478,3.7479,3.896,3.8826,3.8821,3.8645,3.857,3.8444,3.8167,3.8085,3.794,3.7786,3.7784,3.7579,3.7192,3.7103,3.7496,3.7493,3.7491,3.7489,3.7488,3.9434,3.929,3.9284,3.9209,3.898,3.8921,3.8643,3.8495,3.8394,3.8381,3.816,3.7909,3.7802,3.7762,3.7687,3.8207,3.8207,3.8207,3.8208,3.9765,3.9687,3.9629,3.9523,3.9392,3.9139,3.9132,3.8914,3.8666,3.8589,3.848,3.8359,3.8328,3.8238,3.8188,3.8115,3.8733,3.8733,3.8734,4.0045,3.9943,3.9984,3.9742,3.9544,3.9379,3.9365,3.9249,3.8936,3.875,3.8525,3.8503,3.8304,3.8251,3.8072,3.7998,3.7859,0,0]}]]